Total_Precipitation_Accumulation
3.60 3.80 3.72 3.79 3.53 3.69 4.00 4.13 3.76 3.77 3.62 3.52 3.29 3.05 3.02 2.75 2.46 2.37 2.42 2.52 2.41 2.38 2.60 2.71 2.62 2.57 2.57 2.36 2.15 1.90 1.71 1.63 1.47 1.28 1.17 1.17 1.13 1.05 1.01 0.91 0.87 0.77 0.73
3.16 3.26 3.21 3.36 3.22 3.30 3.45 3.47 3.48 3.77 3.76 3.61 3.23 2.93 2.83 2.81 2.64 2.46 2.61 2.67 2.63 2.39 2.49 2.86 3.08 3.07 3.14 2.99 2.67 2.35 2.10 1.90 1.62 1.34 1.22 1.22 1.15 1.14 1.21 1.24 1.28 0.99 0.85
2.87 2.92 3.00 2.99 3.01 2.89 2.95 2.98 3.11 3.40 3.39 3.25 3.01 2.71 2.64 2.71 2.75 2.67 2.54 2.63 2.64 2.64 2.58 2.71 2.99 3.12 3.39 3.51 3.34 2.93 2.57 2.19 1.79 1.41 1.19 1.14 1.10 1.02 1.09 1.19 1.24 1.07 0.97
2.49 2.62 2.58 2.55 2.58 2.50 2.54 2.76 2.84 3.12 3.30 3.30 3.19 2.77 2.74 2.78 2.66 2.75 2.65 2.62 2.95 2.71 2.91 3.03 3.02 3.00 3.40 3.82 3.99 3.84 3.35 2.63 2.04 1.68 1.41 1.26 1.20 1.10 1.04 1.08 1.09 1.09 1.00
2.35 2.44 2.53 2.60 2.29 2.34 2.44 2.31 2.67 2.94 3.26 3.30 2.81 2.78 2.56 2.48 2.50 2.35 2.55 2.47 2.68 2.85 3.10 3.13 3.14 3.03 3.41 4.17 4.76 4.95 4.45 3.55 2.77 2.32 2.07 1.84 1.64 1.36 1.21 1.20 1.16 1.13 1.06
2.40 2.48 2.35 2.23 2.02 2.23 2.56 2.69 3.12 3.13 3.10 3.09 2.54 2.73 2.52 2.17 2.24 2.35 2.32 2.42 2.48 2.34 2.74 3.12 3.33 2.85 3.23 3.93 4.47 4.92 5.16 4.77 3.97 3.21 2.84 2.60 2.37 1.90 1.43 1.27 1.25 1.23 1.15
2.51 2.57 2.37 2.45 2.16 2.24 2.39 2.48 2.77 2.92 2.86 2.85 3.12 3.19 2.75 2.29 2.27 2.19 2.14 2.40 2.42 2.45 2.88 3.37 3.52 3.35 2.94 2.78 2.93 3.60 4.55 5.19 5.07 4.31 3.71 3.25 2.92 2.40 1.83 1.50 1.33 1.28 1.28
2.47 2.31 2.51 2.29 2.22 2.46 2.50 2.58 2.81 2.88 2.81 2.86 3.05 3.40 3.16 3.10 2.64 1.96 2.18 2.34 2.42 2.67 2.73 2.88 3.24 3.52 3.13 3.10 2.37 2.43 3.37 4.23 5.06 5.08 4.38 3.60 3.23 2.89 2.40 2.00 1.73 1.52 1.42
2.35 2.44 2.39 2.43 2.56 2.25 2.49 2.65 2.67 2.79 2.86 2.78 2.76 3.17 3.18 3.17 2.74 2.14 2.01 2.11 2.35 2.66 2.69 2.80 2.63 2.90 3.11 3.43 3.14 2.46 2.57 2.90 3.90 4.96 5.00 4.21 3.45 2.91 2.66 2.51 2.33 2.01 1.75
2.25 2.25 2.37 2.68 2.78 2.48 2.69 2.26 2.39 2.67 2.82 2.71 2.74 2.59 2.52 2.68 2.88 2.76 2.36 2.11 2.22 2.36 2.47 2.49 2.63 2.89 3.05 3.37 3.33 2.51 1.94 2.04 2.78 3.98 4.79 4.64 3.98 3.23 2.88 2.93 3.20 3.14 2.64
2.55 2.23 2.27 2.56 2.72 2.67 2.76 2.60 2.79 2.55 2.44 2.42 2.51 2.58 2.59 2.49 2.31 2.53 2.60 2.42 2.27 2.01 1.97 2.04 2.21 2.39 2.46 2.86 3.17 2.42 1.95 1.92 2.10 2.69 3.32 3.76 3.80 3.55 3.29 3.41 3.99 4.37 4.18
2.53 2.33 2.34 2.66 2.66 2.64 2.76 2.69 2.66 2.48 2.43 2.42 2.35 2.30 2.61 2.62 2.46 2.55 2.35 2.29 2.21 1.78 1.67 1.75 1.83 1.94 2.11 2.39 2.35 2.17 2.21 2.26 2.10 2.07 2.15 2.41 2.83 3.13 3.37 3.59 3.99 4.45 4.71
2.20 2.31 2.46 2.77 2.71 2.68 2.63 2.69 2.62 2.58 2.61 2.62 2.50 2.33 2.38 2.44 2.49 2.47 2.43 2.11 1.96 1.73 1.75 1.68 1.65 1.86 2.00 2.48 2.66 2.48 2.38 2.53 2.17 1.89 1.78 1.76 1.89 2.18 2.51 2.87 3.39 3.92 4.36
2.21 2.31 2.44 2.40 2.38 2.45 2.33 2.61 2.43 2.40 2.53 2.58 2.43 2.75 2.65 2.32 2.44 2.45 2.55 2.73 2.49 2.19 2.15 2.03 1.95 2.10 2.32 2.56 2.87 2.72 2.32 2.20 1.89 1.73 1.66 1.59 1.61 1.67 1.82 1.99 2.27 2.65 2.96
2.12 2.24 2.25 2.31 2.34 2.36 2.42 2.63 2.52 2.53 2.71 2.53 2.50 2.89 2.73 2.38 2.35 2.39 2.55 2.85 3.11 2.74 2.42 2.35 2.39 2.42 2.48 2.54 2.70 2.47 2.26 2.17 1.90 1.70 1.60 1.56 1.56 1.54 1.54 1.55 1.63 1.79 1.96
1.97 2.13 2.20 2.31 2.36 2.32 2.39 2.56 2.41 2.58 2.66 2.57 2.59 2.69 2.64 2.41 2.42 2.47 2.62 2.79 3.06 3.03 2.62 2.36 2.57 2.63 2.50 2.34 2.63 2.53 2.27 2.16 1.87 1.66 1.50 1.44 1.46 1.53 1.55 1.56 1.54 1.59 1.63
1.96 2.08 2.18 2.27 2.28 2.31 2.45 2.54 2.39 2.54 2.55 2.65 2.59 2.55 2.51 2.70 2.72 2.55 2.68 2.76 2.96 3.19 2.94 2.56 2.68 2.70 2.59 2.38 2.39 2.34 2.23 2.18 1.98 1.91 1.65 1.53 1.45 1.45 1.43 1.45 1.52 1.56 1.54
2.04 2.14 2.25 2.35 2.26 2.34 2.48 2.43 2.42 2.49 2.54 2.53 2.63 2.83 2.76 2.89 2.86 2.79 2.94 2.94 3.02 3.27 3.21 2.91 2.79 2.82 2.70 2.58 2.50 2.29 1.98 1.90 1.88 2.07 1.87 1.67 1.55 1.49 1.43 1.39 1.36 1.32 1.29
2.18 2.17 2.15 2.23 2.37 2.54 2.57 2.41 2.40 2.40 2.33 2.25 2.42 2.69 2.97 3.40 3.24 3.04 2.90 2.83 2.90 2.96 3.19 2.95 2.72 2.90 2.75 2.64 2.58 2.25 2.01 1.96 1.66 1.75 1.79 1.64 1.47 1.33 1.25 1.23 1.20 1.16 1.10
2.18 2.25 2.30 2.32 2.41 2.45 2.41 2.39 2.43 2.44 2.41 2.26 2.28 2.38 2.54 2.84 3.01 3.14 2.90 2.77 2.82 2.94 3.08 3.02 2.96 3.16 3.21 3.05 2.84 2.45 2.27 2.13 1.90 1.61 1.64 1.54 1.43 1.32 1.25 1.19 1.16 1.14 1.13
2.27 2.46 2.49 2.46 2.46 2.41 2.22 2.39 2.51 2.40 2.47 2.39 2.33 2.28 2.14 2.26 2.45 2.64 2.50 2.77 2.95 2.93 3.02 3.07 3.18 3.55 3.55 3.33 2.82 2.55 2.46 2.35 2.08 1.74 1.66 1.46 1.37 1.25 1.22 1.24 1.21 1.16 1.12
2.74 2.76 2.60 2.53 2.49 2.24 2.38 2.42 2.43 2.43 2.53 2.49 2.41 2.38 2.22 2.07 2.04 2.17 2.24 2.44 2.69 2.75 2.84 3.01 3.10 3.29 3.33 3.26 3.04 2.78 2.53 2.38 2.10 1.84 1.83 1.67 1.51 1.41 1.28 1.17 1.27 1.27 1.25
2.83 2.83 2.87 2.81 2.70 2.75 2.75 2.40 2.32 2.32 2.39 2.40 2.55 2.64 2.23 1.87 2.06 2.02 2.12 2.12 2.08 2.24 2.45 2.67 2.82 2.89 3.19 3.31 3.31 2.89 2.70 2.51 2.17 2.00 2.03 1.85 1.74 1.56 1.35 1.28 1.38 1.25 1.23
2.80 2.75 2.68 2.60 2.57 2.55 2.60 2.33 2.26 2.15 2.19 2.22 2.24 2.26 2.23 2.07 1.98 2.01 2.00 1.89 1.76 1.78 1.92 1.98 2.09 2.37 2.73 3.19 3.47 3.21 3.07 2.86 2.51 2.19 2.00 1.86 1.76 1.63 1.45 1.36 1.44 1.29 1.19
2.68 2.59 2.53 2.52 2.47 2.46 2.51 2.31 2.24 2.06 2.05 2.00 1.98 1.99 2.02 1.90 1.95 1.91 1.82 1.78 1.73 1.62 1.65 1.72 1.72 1.86 2.17 2.57 3.05 3.24 2.98 2.63 2.31 2.00 1.90 1.80 1.64 1.71 1.68 1.53 1.47 1.52 1.32
2.77 2.71 2.62 2.64 2.62 2.59 2.71 2.44 2.27 2.09 2.08 2.11 2.20 2.18 2.13 1.96 1.94 1.84 1.68 1.68 1.56 1.44 1.54 1.53 1.48 1.51 1.63 1.97 2.46 2.62 2.71 2.54 2.22 1.98 1.68 1.70 1.64 1.76 1.80 1.53 1.37 1.38 1.35